Back to catalog

FENGYUN 1C DEB

AliveSSO
NORAD 30448·DEBRIS·🇨🇳 China

Launched May 10, 1999 from Taiyuan Satellite Launch Center

Loading…

Next Passes (next 24 hours)

TLE

FreshSource: Space-Track

Epoch: Sep 14, 2026, 06:11 UTC

1 30448U 99025AFK 26257.25787296  .00002938  00000-0  99117-3 0  9994
2 30448  98.8314   0.7512 0016312 274.3661 115.0934 14.37688454 12951

Track FENGYUN 1C DEB in real time with AllMySat

Download on the App Store